Hourly Data Report for October 03, 2017

All times are specified in Local Standard Time (LST). Add 1 hour to adjust for Daylight Saving Time where and when it is observed.

TUKTOYAKTUK
NORTHWEST TERRITORIES

69°26'00.000" N
133°01'00.000" W
4.60 m
2203914
71985
ZUB

Download Data

Hourly Data (October 2017)
Hourly Data Report for October 3, 2017
Temp Definition
°C
Dew Point Temp Definition
°C
Rel Hum Definition
%
Wind Dir Definition
10's deg

Wind Spd Definition
km/h
Visibility Definition
km
Stn Press Definition
kPa
Hmdx Definition


Wind Chill Definition


Weather Definition


TIME
00:00 -1.1 -3.5 84 LegendMM LegendMM   101.60     LegendNANA
01:00 -1.3 -3.7 83 LegendMM LegendMM   101.60     LegendNANA
02:00 -1.4 -3.7 85 LegendMM LegendMM   101.58     LegendNANA
03:00 -1.5 -3.4 87 LegendMM LegendMM   101.56     LegendNANA
04:00 -1.4 -3.5 85 LegendMM LegendMM   101.53     LegendNANA
05:00 -1.5 -3.6 85 LegendMM LegendMM   101.51     LegendNANA
06:00 -1.5 -3.4 87 LegendMM LegendMM   101.52     LegendNANA
07:00 -1.6 -3.1 90 LegendMM LegendMM   101.55     LegendNANA
08:00 -1.7 -2.8 92 LegendMM LegendMM   101.57     LegendNANA
09:00 -1.7 -2.7 93 LegendMM LegendMM   101.58     LegendNANA
10:00 -1.7 -2.6 94 LegendMM LegendMM   101.60     LegendNANA
11:00 -1.4 -2.6 91 LegendMM LegendMM   101.60     LegendNANA
12:00 -1.0 -2.3 91 LegendMM LegendMM   101.61     LegendNANA
13:00 -0.8 -1.9 92 LegendMM LegendMM   101.62     LegendNANA
14:00 -0.4 -1.5 92 LegendMM LegendMM   101.64     LegendNANA
15:00 -0.2 -1.5 91 LegendMM LegendMM   101.65     LegendNANA
16:00 -0.1 -1.1 92 LegendMM LegendMM   101.68     LegendNANA
17:00 0.1 -1.0 93 LegendMM LegendMM   101.67     LegendNANA
18:00 0.2 -0.8 93 LegendMM LegendMM   101.66     LegendNANA
19:00 0.4 -0.5 93 LegendMM LegendMM   101.68     LegendNANA
20:00 0.5 -0.5 93 LegendMM LegendMM   101.69     LegendNANA
21:00 0.5 -0.4 94 LegendMM LegendMM   101.70     LegendNANA
22:00 0.7 -0.3 93 LegendMM LegendMM   101.72     LegendNANA
23:00 0.7 -0.3 93 LegendMM LegendMM   101.71     LegendNANA

Notes on Data Quality.

Legend

  • E = Estimated
  • M = Missing
  • NA = Not Available
  • ‡ = Partner data that is not subject to review by the National Climate Archives
Date modified: